This is the latest recevied weather packets stored in our database for station/object WP3XM. If no packets are shown the sender has not sent any weather packets the latest 10 day(s).
| Time | Temp. | Humidity | Pressure | Rain* | Wind** | Luminosity | Snow |
|---|---|---|---|---|---|---|---|
| 1778183162 | 28.89° C | 69% | 1016.4 hPa | 0 mm | - | 570 W/m² | - |
| 1778182858 | 29.44° C | 71% | 1016.5 hPa | 0 mm | - | 587 W/m² | - |
| 1778182555 | 29.44° C | 72% | 1016.6 hPa | 0 mm | - | 495 W/m² | - |
| 1778182252 | 28.89° C | 71% | 1016.5 hPa | 0 mm | - | 642 W/m² | - |
| 1778181948 | 29.44° C | 71% | 1016.6 hPa | 0 mm | - | 701 W/m² | - |
| 1778181645 | 29.44° C | 70% | 1016.7 hPa | 0 mm | - | 585 W/m² | - |
| 1778181340 | 29.44° C | 71% | 1016.6 hPa | 0 mm | - | 728 W/m² | - |
| 1778181038 | 29.44° C | 71% | 1016.6 hPa | 0 mm | - | 761 W/m² | - |
| 1778180735 | 29.44° C | 70% | 1016.7 hPa | 0 mm | - | 176 W/m² | - |
| 1778180434 | 29.44° C | 70% | 1016.7 hPa | 0 mm | - | 736 W/m² | - |
| 1778180132 | 29.44° C | 71% | 1016.8 hPa | 0 mm | - | 769 W/m² | - |
| 1778179828 | 29.44° C | 69% | 1016.9 hPa | 0 mm | - | 765 W/m² | - |
| 1778179526 | 29.44° C | 71% | 1016.7 hPa | 0 mm | - | 818 W/m² | - |
| 1778179224 | 29.44° C | 70% | 1016.9 hPa | 0 mm | - | 404 W/m² | - |
| 1778178919 | 29.44° C | 72% | 1016.9 hPa | 0 mm | - | 925 W/m² | - |
| 1778178617 | 29.44° C | 73% | 1016.9 hPa | 0 mm | - | 865 W/m² | - |
| 1778178313 | 29.44° C | 73% | 1017.1 hPa | 0 mm | - | 864 W/m² | - |
| 1778178009 | 29.44° C | 71% | 1017 hPa | 0 mm | - | 954 W/m² | - |
| 1778177706 | 29.44° C | 69% | 1017.1 hPa | 0 mm | - | 913 W/m² | - |
| 1778177402 | 29.44° C | 71% | 1017.2 hPa | 0 mm | - | 866 W/m² | - |
| 1778177099 | 29.44° C | 72% | 1017.2 hPa | 0 mm | - | 900 W/m² | - |
| 1778176795 | 29.44° C | 73% | 1017.4 hPa | 0 mm | - | 925 W/m² | - |
| 1778176492 | 30° C | 72% | 1017.5 hPa | 0 mm | - | 312 W/m² | - |
| 1778176189 | 30° C | 71% | 1017.5 hPa | 0 mm | - | 959 W/m² | - |
| 1778175886 | 29.44° C | 72% | 1017.6 hPa | 0 mm | - | 1049 W/m² | - |
* Rain latest hour (hover to see other rain measurements)
** Current wind speed in m/s (hover to see current wind gust speed)